AUA428 LEPA-LOWW

Flight info

Callsign AUA428
Flight time 2h 13m
Altitude 38000
Route ISTER DCT NIVDA DCT OMEDA DCT RAPUR DCT TORTU DCT ERTEV DCT IDONA DCT BARPI DCT LAPNA
Aircraft A20N/M-SDE2E3FGHIRWXY/LB1

Departure

Time 2026-04-22 17:18
Airport Palma de Mallorca Airport (LEPA)

Arrival

Time 2026-04-22 19:31
Airport Vienna International Airport (LOWW)
Time Latitude Longitude Altitude Speed Heading
2026-04-22 16:49 39.55018 2.73494 31 ft 0 kts 173°
2026-04-22 17:08 39.55023 2.73493 31 ft 2 kts 173°
2026-04-22 17:08 39.55038 2.73491 31 ft 2 kts 173°
2026-04-22 17:08 39.55051 2.73488 31 ft 1 kts 173°
2026-04-22 17:09 39.55060 2.73485 31 ft 2 kts 140°
2026-04-22 17:09 39.55068 2.73468 31 ft 2 kts 89°
2026-04-22 17:09 39.55066 2.73458 31 ft 0 kts 64°
2026-04-22 17:09 39.55062 2.73449 31 ft 0 kts 58°
2026-04-22 17:11 39.55063 2.73452 31 ft 1 kts 59°
2026-04-22 17:11 39.55069 2.73463 31 ft 2 kts 59°
2026-04-22 17:12 39.55079 2.73485 31 ft 4 kts 58°
2026-04-22 17:12 39.55099 2.73529 31 ft 7 kts 58°
2026-04-22 17:12 39.55130 2.73593 31 ft 9 kts 59°
2026-04-22 17:12 39.55174 2.73645 31 ft 9 kts 346°
2026-04-22 17:13 39.55227 2.73591 31 ft 11 kts 328°
2026-04-22 17:13 39.55300 2.73533 31 ft 14 kts 328°
2026-04-22 17:13 39.55386 2.73464 31 ft 15 kts 328°
2026-04-22 17:13 39.55465 2.73480 31 ft 14 kts 69°
2026-04-22 17:14 39.55521 2.73572 31 ft 14 kts 359°
2026-04-22 17:14 39.55604 2.73511 31 ft 14 kts 329°
2026-04-22 17:14 39.55678 2.73558 31 ft 14 kts 58°
2026-04-22 17:14 39.55729 2.73665 31 ft 14 kts 58°
2026-04-22 17:15 39.55764 2.73736 31 ft 14 kts 58°
2026-04-22 17:15 39.55836 2.73883 31 ft 15 kts 57°
2026-04-22 17:15 39.55893 2.74010 31 ft 23 kts 60°
2026-04-22 17:15 39.55981 2.74201 31 ft 24 kts 57°
2026-04-22 17:16 39.56089 2.74338 31 ft 22 kts 349°
2026-04-22 17:16 39.56192 2.74223 31 ft 19 kts 274°
2026-04-22 17:16 39.56180 2.74173 31 ft 1 kts 236°
2026-04-22 17:16 39.56175 2.74163 31 ft 2 kts 236°
2026-04-22 17:17 39.56166 2.74147 31 ft 3 kts 237°
2026-04-22 17:17 39.56026 2.73849 31 ft 79 kts 239°
2026-04-22 17:17 39.55616 2.72981 31 ft 145 kts 238°
2026-04-22 17:17 39.55047 2.71767 498 ft 160 kts 239°
2026-04-22 17:18 39.54499 2.70554 1232 ft 159 kts 241°
2026-04-22 17:18 39.53942 2.69337 1923 ft 162 kts 238°
2026-04-22 17:18 39.53323 2.68061 2397 ft 177 kts 237°
2026-04-22 17:18 39.52496 2.66818 2846 ft 194 kts 210°
2026-04-22 17:19 39.49634 2.66949 3737 ft 235 kts 164°
2026-04-22 17:19 39.47310 2.70052 4824 ft 275 kts 98°
2026-04-22 17:20 39.48226 2.74840 6519 ft 285 kts 65°
2026-04-22 17:20 39.49794 2.79572 8327 ft 292 kts 67°
2026-04-22 17:21 39.50528 2.82018 9209 ft 295 kts 68°
2026-04-22 17:21 39.51946 2.87105 10667 ft 311 kts 69°
2026-04-22 17:22 39.53445 2.92696 11526 ft 345 kts 69°
2026-04-22 17:22 39.54226 2.95660 12209 ft 353 kts 69°
2026-04-22 17:22 39.55814 3.01715 13665 ft 363 kts 69°
2026-04-22 17:23 39.56628 3.04834 14371 ft 368 kts 69°
2026-04-22 17:23 39.58273 3.11146 15761 ft 376 kts 70°
2026-04-22 17:23 39.59108 3.14355 16424 ft 381 kts 70°
2026-04-22 17:24 39.59952 3.17608 17076 ft 385 kts 70°
2026-04-22 17:24 39.60805 3.20897 17711 ft 389 kts 70°
2026-04-22 17:24 39.61666 3.24224 18326 ft 393 kts 70°
2026-04-22 17:24 39.62539 3.27604 18945 ft 397 kts 69°
2026-04-22 17:25 39.63415 3.31001 19546 ft 401 kts 69°
2026-04-22 17:25 39.64297 3.34422 20142 ft 404 kts 69°
2026-04-22 17:25 39.65186 3.37878 20742 ft 407 kts 69°
2026-04-22 17:25 39.66081 3.41361 21314 ft 411 kts 69°
2026-04-22 17:26 39.66983 3.44874 21873 ft 415 kts 69°
2026-04-22 17:26 39.67893 3.48425 22433 ft 418 kts 69°
2026-04-22 17:26 39.68816 3.52027 22990 ft 421 kts 69°
2026-04-22 17:26 39.69737 3.55630 23541 ft 424 kts 69°
2026-04-22 17:27 39.70354 3.58044 23893 ft 426 kts 69°
2026-04-22 17:27 39.71598 3.62922 24589 ft 431 kts 69°
2026-04-22 17:27 39.72535 3.66606 25102 ft 433 kts 69°
2026-04-22 17:27 39.73479 3.70320 25578 ft 436 kts 69°
2026-04-22 17:28 39.74426 3.74053 26046 ft 439 kts 69°
2026-04-22 17:28 39.75385 3.77839 26511 ft 442 kts 69°
2026-04-22 17:28 39.76343 3.81627 26950 ft 445 kts 69°
2026-04-22 17:28 39.77305 3.85434 27371 ft 447 kts 69°
2026-04-22 17:29 39.78272 3.89270 27794 ft 450 kts 69°
2026-04-22 17:29 39.79241 3.93121 28195 ft 452 kts 68°
2026-04-22 17:29 39.80216 3.97001 28579 ft 454 kts 68°
2026-04-22 17:29 39.81194 4.00897 28937 ft 456 kts 68°
2026-04-22 17:30 39.82183 4.04842 29289 ft 459 kts 68°
2026-04-22 17:30 39.83166 4.08776 29633 ft 460 kts 68°
2026-04-22 17:30 39.84148 4.12715 30056 ft 460 kts 68°
2026-04-22 17:30 39.85151 4.16630 30517 ft 457 kts 66°
2026-04-22 17:31 39.86289 4.20443 30979 ft 452 kts 63°
2026-04-22 17:31 39.87586 4.24125 31422 ft 448 kts 59°
2026-04-22 17:31 39.89038 4.27666 31856 ft 444 kts 56°
2026-04-22 17:31 39.90583 4.31140 32277 ft 441 kts 55°
2026-04-22 17:32 39.92125 4.34559 32673 ft 439 kts 55°
2026-04-22 17:32 39.93663 4.37968 33059 ft 438 kts 55°
2026-04-22 17:32 39.95191 4.41369 33433 ft 436 kts 55°
2026-04-22 17:32 39.96707 4.44754 33794 ft 435 kts 55°
2026-04-22 17:33 39.97721 4.47021 34028 ft 434 kts 55°
2026-04-22 17:33 39.99722 4.51506 34469 ft 432 kts 54°
2026-04-22 17:33 40.01233 4.54900 34779 ft 431 kts 54°
2026-04-22 17:33 40.02729 4.58264 35076 ft 430 kts 54°
2026-04-22 17:34 40.04221 4.61621 35360 ft 430 kts 54°
2026-04-22 17:34 40.05774 4.64923 35631 ft 427 kts 51°
2026-04-22 17:34 40.07452 4.68079 35876 ft 425 kts 49°
2026-04-22 17:34 40.09261 4.71093 36110 ft 423 kts 46°
2026-04-22 17:35 40.11125 4.74035 36344 ft 423 kts 45°
2026-04-22 17:35 40.13012 4.76984 36566 ft 423 kts 45°
2026-04-22 17:35 40.14890 4.79921 36741 ft 424 kts 45°
2026-04-22 17:35 40.16772 4.82868 36903 ft 425 kts 45°
2026-04-22 17:36 40.18659 4.85831 37067 ft 427 kts 45°
2026-04-22 17:36 40.20548 4.88802 37222 ft 428 kts 45°
2026-04-22 17:36 40.22442 4.91788 37374 ft 429 kts 45°
2026-04-22 17:36 40.24336 4.94776 37521 ft 430 kts 46°
2026-04-22 17:37 40.26252 4.97801 37663 ft 431 kts 46°
2026-04-22 17:37 40.28164 5.00825 37802 ft 432 kts 46°
2026-04-22 17:37 40.30070 5.03842 37941 ft 433 kts 46°
2026-04-22 17:37 40.31984 5.06873 38028 ft 435 kts 46°
2026-04-22 17:38 40.35824 5.12967 38035 ft 436 kts 46°
2026-04-22 17:38 40.39680 5.19097 38036 ft 437 kts 46°
2026-04-22 17:39 40.43521 5.25218 38037 ft 437 kts 46°
2026-04-22 17:40 40.49293 5.34434 38037 ft 438 kts 46°
2026-04-22 17:40 40.53152 5.40615 38037 ft 438 kts 46°
2026-04-22 17:41 40.57001 5.46790 38037 ft 439 kts 46°
2026-04-22 17:41 40.60850 5.52978 38037 ft 439 kts 46°
2026-04-22 17:42 40.64698 5.59174 38037 ft 440 kts 46°
2026-04-22 17:42 40.67913 5.64363 38037 ft 440 kts 46°
2026-04-22 17:43 40.72405 5.71627 38036 ft 440 kts 47°
2026-04-22 17:43 40.76253 5.77863 38037 ft 441 kts 47°
2026-04-22 17:44 40.80108 5.84124 38037 ft 440 kts 47°
2026-04-22 17:44 40.83944 5.90367 38037 ft 440 kts 47°
2026-04-22 17:45 40.87783 5.96625 38037 ft 441 kts 47°
2026-04-22 17:45 40.91627 6.02902 38035 ft 441 kts 47°
2026-04-22 17:46 40.95485 6.09217 38034 ft 443 kts 47°
2026-04-22 17:46 40.99331 6.15527 38038 ft 443 kts 47°
2026-04-22 17:47 41.03177 6.21852 38054 ft 443 kts 47°
2026-04-22 17:47 41.07024 6.28191 38062 ft 443 kts 47°
2026-04-22 17:48 41.10196 6.33426 38064 ft 443 kts 47°
2026-04-22 17:48 41.14702 6.40875 38065 ft 443 kts 47°
2026-04-22 17:49 41.18528 6.47216 38065 ft 443 kts 47°
2026-04-22 17:49 41.22365 6.53590 38066 ft 442 kts 47°
2026-04-22 17:50 41.26201 6.59911 38065 ft 442 kts 46°
2026-04-22 17:50 41.30099 6.66163 38064 ft 441 kts 46°
2026-04-22 17:51 41.34017 6.72458 38068 ft 442 kts 46°
2026-04-22 17:51 41.37910 6.78735 38073 ft 442 kts 46°
2026-04-22 17:52 41.41797 6.85020 38080 ft 442 kts 46°
2026-04-22 17:52 41.45681 6.91314 38086 ft 441 kts 46°
2026-04-22 17:53 41.49567 6.97625 38090 ft 441 kts 46°
2026-04-22 17:53 41.53441 7.03929 38064 ft 441 kts 46°
2026-04-22 17:54 41.57316 7.10249 38032 ft 441 kts 46°
2026-04-22 17:54 41.61197 7.16589 38018 ft 442 kts 46°
2026-04-22 17:55 41.64409 7.21848 38015 ft 441 kts 46°
2026-04-22 17:55 41.68910 7.29233 38014 ft 441 kts 46°
2026-04-22 17:56 41.72760 7.35565 38021 ft 440 kts 46°
2026-04-22 17:56 41.76617 7.41919 38034 ft 441 kts 46°
2026-04-22 17:57 41.80457 7.48261 38051 ft 440 kts 46°
2026-04-22 17:57 41.84293 7.54611 38060 ft 440 kts 46°
2026-04-22 17:58 41.88134 7.60979 38064 ft 440 kts 46°
2026-04-22 17:58 41.91956 7.67331 38063 ft 440 kts 46°
2026-04-22 17:59 41.95778 7.73694 38066 ft 440 kts 46°
2026-04-22 17:59 41.99593 7.80061 38070 ft 439 kts 46°
2026-04-22 18:00 42.02779 7.85389 38074 ft 439 kts 46°
2026-04-22 18:00 42.07224 7.92837 38081 ft 439 kts 46°
2026-04-22 18:01 42.11028 7.99225 38088 ft 439 kts 47°
2026-04-22 18:01 42.14843 8.05645 38090 ft 439 kts 47°
2026-04-22 18:02 42.18639 8.12047 38091 ft 439 kts 47°
2026-04-22 18:02 42.22429 8.18452 38091 ft 440 kts 46°
2026-04-22 18:03 42.26224 8.24880 38092 ft 440 kts 46°
2026-04-22 18:03 42.30214 8.31074 38090 ft 435 kts 39°
2026-04-22 18:04 42.34842 8.36223 38092 ft 432 kts 28°
2026-04-22 18:04 42.39999 8.40165 38091 ft 426 kts 19°
2026-04-22 18:05 42.45437 8.43232 38092 ft 425 kts 17°
2026-04-22 18:05 42.50881 8.46220 38092 ft 424 kts 17°
2026-04-22 18:06 42.56314 8.49227 38092 ft 424 kts 17°
2026-04-22 18:06 42.61738 8.52243 38091 ft 424 kts 17°
2026-04-22 18:07 42.66278 8.54776 38091 ft 424 kts 17°
2026-04-22 18:07 42.72619 8.58320 38091 ft 425 kts 16°
2026-04-22 18:08 42.78047 8.61363 38096 ft 423 kts 16°
2026-04-22 18:08 42.83439 8.64394 38097 ft 419 kts 15°
2026-04-22 18:09 42.88789 8.67397 38109 ft 418 kts 16°
2026-04-22 18:09 42.94131 8.70409 38117 ft 418 kts 16°
2026-04-22 18:10 42.99472 8.73426 38119 ft 418 kts 16°
2026-04-22 18:10 43.04839 8.76464 38120 ft 418 kts 16°
2026-04-22 18:11 43.10180 8.79492 38120 ft 418 kts 16°
2026-04-22 18:11 43.15520 8.82526 38120 ft 418 kts 16°
2026-04-22 18:12 43.20882 8.85578 38120 ft 418 kts 16°
2026-04-22 18:12 43.25322 8.88110 38120 ft 418 kts 16°
2026-04-22 18:13 43.31560 8.91648 38119 ft 416 kts 14°
2026-04-22 18:13 43.37006 8.94015 38119 ft 410 kts
2026-04-22 18:14 43.42561 8.95415 38120 ft 405 kts
2026-04-22 18:14 43.48106 8.95865 38119 ft 400 kts 355°
2026-04-22 18:15 43.53632 8.95861 38120 ft 400 kts 354°
2026-04-22 18:15 43.59191 8.96539 38119 ft 408 kts
2026-04-22 18:16 43.64582 8.99106 38119 ft 420 kts 19°
2026-04-22 18:16 43.69496 9.03582 38119 ft 434 kts 34°
2026-04-22 18:17 43.73845 9.09329 38120 ft 435 kts 37°
2026-04-22 18:17 43.78128 9.15208 38120 ft 434 kts 37°
2026-04-22 18:18 43.82401 9.21049 38120 ft 434 kts 37°
2026-04-22 18:18 43.86676 9.26889 38131 ft 434 kts 37°
2026-04-22 18:19 43.90960 9.32750 38140 ft 434 kts 37°
2026-04-22 18:19 43.95199 9.38660 38144 ft 436 kts 39°
2026-04-22 18:20 43.99064 9.45157 38145 ft 443 kts 46°
2026-04-22 18:20 44.02412 9.52360 38146 ft 448 kts 52°
2026-04-22 18:21 44.05529 9.59841 38145 ft 448 kts 52°
2026-04-22 18:21 44.08631 9.67318 38143 ft 449 kts 53°
2026-04-22 18:22 44.11745 9.74814 38146 ft 449 kts 53°
2026-04-22 18:22 44.14866 9.82336 38146 ft 449 kts 53°
2026-04-22 18:23 44.17966 9.89828 38146 ft 449 kts 53°
2026-04-22 18:23 44.21069 9.97340 38146 ft 449 kts 53°
2026-04-22 18:24 44.25722 10.08641 38146 ft 449 kts 53°
2026-04-22 18:25 44.30350 10.19928 38146 ft 449 kts 53°
2026-04-22 18:25 44.33432 10.27468 38146 ft 449 kts 53°
2026-04-22 18:26 44.38039 10.38782 38150 ft 448 kts 53°
2026-04-22 18:26 44.41104 10.46328 38157 ft 448 kts 53°
2026-04-22 18:27 44.44154 10.53862 38164 ft 447 kts 53°
2026-04-22 18:27 44.47210 10.61430 38170 ft 447 kts 53°
2026-04-22 18:28 44.50252 10.68988 38172 ft 447 kts 54°
2026-04-22 18:28 44.53283 10.76532 38174 ft 446 kts 54°
2026-04-22 18:29 44.56305 10.84081 38174 ft 446 kts 54°
2026-04-22 18:29 44.59338 10.91674 38174 ft 446 kts 54°
2026-04-22 18:30 44.63857 11.03022 38174 ft 446 kts 54°
2026-04-22 18:31 44.66862 11.10597 38174 ft 446 kts 54°
2026-04-22 18:31 44.69875 11.18209 38174 ft 446 kts 54°
2026-04-22 18:32 44.72367 11.24527 38174 ft 446 kts 54°
2026-04-22 18:32 44.75854 11.33387 38174 ft 445 kts 54°
2026-04-22 18:33 44.78846 11.41006 38174 ft 445 kts 54°
2026-04-22 18:33 44.81820 11.48604 38174 ft 445 kts 54°
2026-04-22 18:34 44.84787 11.56207 38174 ft 445 kts 54°
2026-04-22 18:34 44.87755 11.63828 38173 ft 446 kts 54°
2026-04-22 18:35 44.90735 11.71506 38174 ft 446 kts 55°
2026-04-22 18:35 44.93691 11.79142 38175 ft 445 kts 55°
2026-04-22 18:36 44.96640 11.86779 38177 ft 445 kts 56°
2026-04-22 18:36 44.99595 11.94453 38184 ft 445 kts 56°
2026-04-22 18:37 45.02531 12.02099 38192 ft 444 kts 56°
2026-04-22 18:37 45.04964 12.08449 38196 ft 443 kts 56°
2026-04-22 18:38 45.08364 12.17355 38200 ft 442 kts 56°
2026-04-22 18:38 45.11277 12.25008 38201 ft 442 kts 56°
2026-04-22 18:39 45.15622 12.36457 38201 ft 442 kts 56°
2026-04-22 18:39 45.18508 12.44087 38201 ft 441 kts 56°
2026-04-22 18:40 45.21394 12.51743 38201 ft 441 kts 56°
2026-04-22 18:40 45.24268 12.59386 38201 ft 441 kts 56°
2026-04-22 18:41 45.27136 12.67027 38199 ft 441 kts 57°
2026-04-22 18:41 45.30011 12.74718 38200 ft 441 kts 57°
2026-04-22 18:42 45.32869 12.82384 38200 ft 441 kts 57°
2026-04-22 18:42 45.35721 12.90054 38199 ft 441 kts 57°
2026-04-22 18:43 45.38567 12.97727 38194 ft 441 kts 57°
2026-04-22 18:43 45.41416 13.05432 38190 ft 440 kts 57°
2026-04-22 18:44 45.44248 13.13107 38189 ft 439 kts 57°
2026-04-22 18:44 45.47064 13.20766 38192 ft 439 kts 57°
2026-04-22 18:45 45.49891 13.28473 38197 ft 438 kts 57°
2026-04-22 18:45 45.52693 13.36131 38200 ft 438 kts 57°
2026-04-22 18:46 45.55488 13.43795 38201 ft 437 kts 57°
2026-04-22 18:46 45.58335 13.51398 38200 ft 435 kts 54°
2026-04-22 18:47 45.61626 13.58565 38201 ft 432 kts 50°
2026-04-22 18:47 45.65058 13.65536 38200 ft 430 kts 50°
2026-04-22 18:48 45.68478 13.72500 38200 ft 430 kts 50°
2026-04-22 18:48 45.71897 13.79492 38200 ft 429 kts 50°
2026-04-22 18:49 45.75299 13.86471 38201 ft 429 kts 50°
2026-04-22 18:49 45.78691 13.93449 38200 ft 429 kts 50°
2026-04-22 18:50 45.82077 14.00435 38201 ft 429 kts 50°
2026-04-22 18:50 45.85469 14.07449 38200 ft 429 kts 50°
2026-04-22 18:51 45.88845 14.14448 38200 ft 428 kts 50°
2026-04-22 18:51 45.92214 14.21449 38200 ft 428 kts 50°
2026-04-22 18:52 45.95590 14.28481 38200 ft 429 kts 50°
2026-04-22 18:52 45.98954 14.35506 38200 ft 429 kts 50°
2026-04-22 18:53 46.02319 14.42546 37891 ft 429 kts 51°
2026-04-22 18:53 46.04003 14.46079 37643 ft 429 kts 51°
2026-04-22 18:53 46.05684 14.49610 37394 ft 429 kts 51°
2026-04-22 18:54 46.07373 14.53165 37221 ft 429 kts 51°
2026-04-22 18:54 46.09050 14.56696 37218 ft 429 kts 51°
2026-04-22 18:54 46.12407 14.63777 37223 ft 430 kts 51°
2026-04-22 18:55 46.15757 14.70861 37226 ft 430 kts 52°
2026-04-22 18:55 46.19114 14.77980 37228 ft 430 kts 52°
2026-04-22 18:56 46.22456 14.85083 37227 ft 430 kts 52°
2026-04-22 18:56 46.25794 14.92195 37228 ft 430 kts 52°
2026-04-22 18:57 46.29131 14.99325 37228 ft 430 kts 52°
2026-04-22 18:57 46.32476 15.06491 37228 ft 430 kts 52°
2026-04-22 18:58 46.35807 15.13643 37227 ft 430 kts 52°
2026-04-22 18:58 46.39133 15.20804 37228 ft 430 kts 52°
2026-04-22 18:59 46.42460 15.27982 37227 ft 430 kts 52°
2026-04-22 18:59 46.45771 15.35150 37229 ft 430 kts 52°
2026-04-22 19:00 46.49481 15.41812 37224 ft 425 kts 39°
2026-04-22 19:00 46.51756 15.44486 37087 ft 420 kts 32°
2026-04-22 19:00 46.54224 15.46663 36542 ft 419 kts 25°
2026-04-22 19:01 46.56865 15.48526 35587 ft 426 kts 22°
2026-04-22 19:01 46.59550 15.50326 34674 ft 431 kts 22°
2026-04-22 19:01 46.62256 15.52134 33915 ft 432 kts 23°
2026-04-22 19:01 46.64957 15.53951 33244 ft 430 kts 23°
2026-04-22 19:02 46.67645 15.55770 32605 ft 428 kts 23°
2026-04-22 19:02 46.70321 15.57589 31976 ft 426 kts 24°
2026-04-22 19:02 46.72987 15.59406 31341 ft 424 kts 24°
2026-04-22 19:02 46.75660 15.61231 30690 ft 422 kts 24°
2026-04-22 19:03 46.78298 15.63036 30092 ft 419 kts 24°
2026-04-22 19:03 46.80894 15.64815 29512 ft 410 kts 24°
2026-04-22 19:03 46.83433 15.66559 28993 ft 402 kts 25°
2026-04-22 19:03 46.85941 15.68283 28682 ft 400 kts 25°
2026-04-22 19:04 46.88440 15.70002 28391 ft 399 kts 25°
2026-04-22 19:04 46.90930 15.71716 28109 ft 396 kts 25°
2026-04-22 19:04 46.93412 15.73427 27649 ft 392 kts 25°
2026-04-22 19:04 46.95858 15.75114 27084 ft 389 kts 25°
2026-04-22 19:05 46.98282 15.76788 26535 ft 386 kts 25°
2026-04-22 19:05 47.00701 15.78460 25929 ft 385 kts 25°
2026-04-22 19:05 47.03092 15.80115 25466 ft 380 kts 25°
2026-04-22 19:05 47.05475 15.81765 24968 ft 377 kts 25°
2026-04-22 19:06 47.07821 15.83392 24456 ft 374 kts 25°
2026-04-22 19:06 47.10170 15.85022 23955 ft 372 kts 25°
2026-04-22 19:06 47.12489 15.86633 23476 ft 369 kts 25°
2026-04-22 19:07 47.17081 15.89827 22551 ft 362 kts 25°
2026-04-22 19:07 47.19344 15.91402 22096 ft 359 kts 25°
2026-04-22 19:07 47.21582 15.92962 21644 ft 357 kts 25°
2026-04-22 19:07 47.23803 15.94511 21196 ft 354 kts 25°
2026-04-22 19:08 47.26023 15.96062 20755 ft 351 kts 25°
2026-04-22 19:08 47.28207 15.97588 20329 ft 348 kts 25°
2026-04-22 19:08 47.30370 15.99103 19887 ft 345 kts 25°
2026-04-22 19:08 47.32514 16.00605 19400 ft 342 kts 25°
2026-04-22 19:09 47.34648 16.02101 18899 ft 340 kts 25°
2026-04-22 19:09 47.36778 16.03503 18460 ft 336 kts 22°
2026-04-22 19:09 47.38239 16.04300 18267 ft 333 kts 19°
2026-04-22 19:09 47.41133 16.05738 17784 ft 329 kts 19°
2026-04-22 19:10 47.43295 16.06800 17232 ft 329 kts 19°
2026-04-22 19:10 47.45453 16.07862 16730 ft 328 kts 19°
2026-04-22 19:10 47.47592 16.08918 16260 ft 325 kts 19°
2026-04-22 19:10 47.49719 16.09971 15776 ft 323 kts 19°
2026-04-22 19:11 47.51831 16.11018 15299 ft 321 kts 19°
2026-04-22 19:11 47.53927 16.12058 14830 ft 318 kts 18°
2026-04-22 19:11 47.56001 16.13089 14578 ft 309 kts 18°
2026-04-22 19:11 47.58009 16.14087 14242 ft 304 kts 18°
2026-04-22 19:12 47.59990 16.15074 13792 ft 302 kts 18°
2026-04-22 19:12 47.61962 16.16057 13344 ft 300 kts 18°
2026-04-22 19:12 47.63925 16.17036 12897 ft 299 kts 18°
2026-04-22 19:12 47.65874 16.18009 12499 ft 295 kts 18°
2026-04-22 19:13 47.67776 16.18959 12315 ft 285 kts 18°
2026-04-22 19:13 47.69631 16.19887 12132 ft 275 kts 18°
2026-04-22 19:13 47.71418 16.20782 11829 ft 271 kts 18°
2026-04-22 19:13 47.73190 16.21669 11430 ft 270 kts 18°
2026-04-22 19:14 47.74900 16.22774 11015 ft 271 kts 30°
2026-04-22 19:14 47.76347 16.24542 10621 ft 273 kts 45°
2026-04-22 19:14 47.77413 16.26848 10384 ft 270 kts 60°
2026-04-22 19:14 47.78104 16.29395 10216 ft 263 kts 66°
2026-04-22 19:15 47.78505 16.31094 10103 ft 257 kts 66°
2026-04-22 19:15 47.79263 16.34372 9870 ft 247 kts 66°
2026-04-22 19:15 47.79821 16.36775 9493 ft 248 kts 66°
2026-04-22 19:15 47.80388 16.39200 9090 ft 250 kts 66°
2026-04-22 19:16 47.80958 16.41636 8692 ft 252 kts 66°
2026-04-22 19:16 47.81534 16.44098 8290 ft 254 kts 66°
2026-04-22 19:16 47.82111 16.46563 7897 ft 251 kts 66°
2026-04-22 19:16 47.82676 16.48991 7489 ft 244 kts 65°
2026-04-22 19:17 47.83221 16.51331 7087 ft 239 kts 65°
2026-04-22 19:17 47.83768 16.53671 6695 ft 241 kts 65°
2026-04-22 19:17 47.84310 16.55998 6320 ft 239 kts 65°
2026-04-22 19:17 47.84854 16.58331 6037 ft 236 kts 65°
2026-04-22 19:18 47.85382 16.60607 6018 ft 233 kts 65°
2026-04-22 19:18 47.85912 16.62884 6017 ft 234 kts 65°
2026-04-22 19:18 47.86446 16.65181 6017 ft 234 kts 66°
2026-04-22 19:18 47.86976 16.67468 6016 ft 234 kts 66°
2026-04-22 19:19 47.87499 16.69731 5895 ft 230 kts 66°
2026-04-22 19:19 47.88021 16.71988 5540 ft 232 kts 66°
2026-04-22 19:19 47.88544 16.74243 5243 ft 230 kts 66°
2026-04-22 19:19 47.89051 16.76451 5090 ft 222 kts 66°
2026-04-22 19:20 47.89539 16.78580 4917 ft 214 kts 66°
2026-04-22 19:20 47.90019 16.80667 4706 ft 210 kts 66°
2026-04-22 19:20 47.90402 16.82757 4438 ft 212 kts 78°
2026-04-22 19:20 47.90408 16.84960 4158 ft 215 kts 95°
2026-04-22 19:21 47.89995 16.87099 4022 ft 217 kts 110°
2026-04-22 19:21 47.89340 16.89142 4022 ft 219 kts 112°
2026-04-22 19:21 47.88915 16.91263 3992 ft 212 kts 84°
2026-04-22 19:21 47.89312 16.93288 4008 ft 203 kts 54°
2026-04-22 19:22 47.90146 16.94987 3825 ft 203 kts 46°
2026-04-22 19:22 47.91062 16.96580 3501 ft 204 kts 45°
2026-04-22 19:22 47.92061 16.98035 3167 ft 199 kts 27°
2026-04-22 19:22 47.93328 16.98450 2993 ft 181 kts 348°
2026-04-22 19:23 47.94436 16.97733 3000 ft 174 kts 329°
2026-04-22 19:23 47.95422 16.96704 3007 ft 173 kts 325°
2026-04-22 19:23 47.96379 16.95618 3080 ft 174 kts 324°
2026-04-22 19:23 47.97340 16.94513 3029 ft 174 kts 324°
2026-04-22 19:24 47.98276 16.93381 3013 ft 174 kts 321°
2026-04-22 19:24 47.99137 16.92111 3003 ft 176 kts 314°
2026-04-22 19:24 47.99872 16.90655 3002 ft 175 kts 306°
2026-04-22 19:24 48.00472 16.89179 2980 ft 158 kts 304°
2026-04-22 19:25 48.01010 16.87773 2988 ft 156 kts 303°
2026-04-22 19:25 48.01524 16.86360 2999 ft 155 kts 302°
2026-04-22 19:25 48.02027 16.84922 3004 ft 156 kts 301°
2026-04-22 19:25 48.02512 16.83483 3004 ft 156 kts 300°
2026-04-22 19:26 48.02991 16.82033 3009 ft 156 kts 300°
2026-04-22 19:26 48.03465 16.80573 3010 ft 156 kts 299°
2026-04-22 19:26 48.03930 16.79128 3012 ft 156 kts 299°
2026-04-22 19:26 48.04403 16.77655 3014 ft 156 kts 299°
2026-04-22 19:27 48.04872 16.76189 3015 ft 156 kts 299°
2026-04-22 19:27 48.05344 16.74721 3013 ft 156 kts 299°
2026-04-22 19:27 48.05814 16.73258 2857 ft 156 kts 299°
2026-04-22 19:27 48.06282 16.71806 2654 ft 155 kts 298°
2026-04-22 19:28 48.06751 16.70354 2454 ft 155 kts 298°
2026-04-22 19:28 48.07217 16.68913 2251 ft 153 kts 298°
2026-04-22 19:28 48.07668 16.67521 2040 ft 145 kts 297°
2026-04-22 19:28 48.08093 16.66211 1866 ft 139 kts 297°
2026-04-22 19:29 48.08515 16.64912 1684 ft 138 kts 297°
2026-04-22 19:29 48.08933 16.63628 1510 ft 138 kts 297°
2026-04-22 19:29 48.09346 16.62345 1327 ft 137 kts 297°
2026-04-22 19:29 48.09752 16.61061 1129 ft 137 kts 297°
2026-04-22 19:30 48.10032 16.60219 999 ft 136 kts 298°
2026-04-22 19:30 48.10586 16.58528 759 ft 135 kts 297°
2026-04-22 19:30 48.10993 16.57283 613 ft 132 kts 298°
2026-04-22 19:30 48.11343 16.56219 609 ft 90 kts 296°
2026-04-22 19:31 48.11551 16.55580 609 ft 56 kts 297°
2026-04-22 19:31 48.11715 16.55261 609 ft 21 kts 317°
2026-04-22 19:31 48.11768 16.55187 609 ft 1 kts 317°
2026-04-22 19:31 48.11801 16.55155 609 ft 7 kts 338°
2026-04-22 19:32 48.11833 16.55142 609 ft 4 kts 355°
2026-04-22 19:32 48.11867 16.55164 609 ft 8 kts 53°
2026-04-22 19:32 48.11860 16.55263 609 ft 11 kts 114°
2026-04-22 19:32 48.11828 16.55370 609 ft 12 kts 115°
2026-04-22 19:33 48.11801 16.55455 609 ft 0 kts 116°
2026-04-22 19:33 48.11799 16.55460 609 ft 1 kts 116°
2026-04-22 19:33 48.11793 16.55478 609 ft 3 kts 116°
2026-04-22 19:33 48.11782 16.55512 609 ft 6 kts 116°
2026-04-22 19:34 48.11756 16.55595 609 ft 12 kts 116°
2026-04-22 19:34 48.11712 16.55733 609 ft 17 kts 115°
2026-04-22 19:34 48.11654 16.55912 609 ft 20 kts 117°
2026-04-22 19:34 48.11592 16.56097 609 ft 20 kts 117°
2026-04-22 19:35 48.11532 16.56281 609 ft 20 kts 116°
2026-04-22 19:35 48.11472 16.56463 609 ft 19 kts 116°
2026-04-22 19:35 48.11433 16.56585 609 ft 19 kts 116°
2026-04-22 19:35 48.11356 16.56824 609 ft 19 kts 116°
2026-04-22 19:36 48.11298 16.57005 609 ft 19 kts 115°
2026-04-22 19:36 48.11235 16.57178 609 ft 19 kts 117°
2026-04-22 19:36 48.11281 16.57317 609 ft 17 kts 24°
2026-04-22 19:36 48.11391 16.57394 609 ft 18 kts 26°
2026-04-22 19:37 48.11503 16.57464 609 ft 18 kts
2026-04-22 19:37 48.11619 16.57425 609 ft 17 kts 343°
2026-04-22 19:37 48.11725 16.57383 609 ft 11 kts 346°
2026-04-22 19:37 48.11799 16.57347 609 ft 12 kts 323°
2026-04-22 19:38 48.11821 16.57311 609 ft 3 kts 308°
2026-04-22 19:38 48.11833 16.57281 609 ft 4 kts 298°
2026-04-22 19:38 48.11825 16.57246 609 ft 4 kts 221°
2026-04-22 19:38 48.11795 16.57218 609 ft 6 kts 206°
2026-04-22 19:39 48.11757 16.57191 609 ft 7 kts 206°
2026-04-22 19:39 48.11743 16.57182 609 ft 0 kts 206°